Regional Weather Roundup
Issued by NWS

Home | Current Version | Previous Version | Text Only | Print | Product List | Glossary Off
Versions: 1 2 3 4 5 6 7 8 9 10 11 12 13 14 15 16 17 18 19 20 21 22 23 24 25 26 27

000
ASUS45 KBOI 280110
RWRID

IDAHO REGIONAL WEATHER ROUNDUP
NATIONAL WEATHER SERVICE BOISE ID
700 PM MDT TUE JUN 27 2017

NOTE: "FAIR" INDICATES FEW OR NO CLOUDS BELOW 12000 FEET
WITH NO SIGNIFICANT WEATHER AND/OR OBSTRUCTIONS TO VISIBILITY

IDZ012-014-280200-
SOUTHWEST IDAHO


CITY           SKY/WX    TMP DP  RH WIND       PRES   REMARKS
BOISE          SUNNY     88  42  20 NW10      29.79F
CALDWELL       MOSUNNY   89  48  24 E5        29.76F
MOUNTAIN HOME  SUNNY     89  45  21 N14G21    29.78F
$$

IDZ016-017-280200-
SOUTHCENTRAL IDAHO


CITY           SKY/WX    TMP DP  RH WIND       PRES   REMARKS
BURLEY         SUNNY     80  43  26 W9G18     29.87F
JEROME         SUNNY     82  46  28 W9        29.88F
TWIN FALLS     SUNNY     83  44  25 NW13      29.88F
$$

IDZ019>023-280200-
SOUTHEAST IDAHO


CITY           SKY/WX    TMP DP  RH WIND       PRES   REMARKS
IDAHO FALLS    MOSUNNY   79  45  29 S20G26    29.86F
POCATELLO      MOSUNNY   80  40  23 SW21G29   29.90S
REXBURG        PTSUNNY   68  48  48 NE28G39   29.90S
$$

IDZ006-010-011-018-031-032-280200-
CENTRAL IDAHO MOUNTAINS


CITY           SKY/WX    TMP DP  RH WIND       PRES   REMARKS
MCCALL         MOSUNNY   73  42  32 NW6       29.91F
HAILEY         MOSUNNY   77  36  22 SW8G23    29.93R
STANLEY          N/A     72  32  23 NW7       30.02S
SALMON         CLOUDY    66  50  55 SW3       29.94F
CHALLIS        PTSUNNY   70  45  40 NE13      29.93R
$$

IDZ002-004-006-007-026-280200-
NORTHERN IDAHO


CITY           SKY/WX    TMP DP  RH WIND       PRES   REMARKS
LEWISTON       SUNNY     86  42  21 NW10      29.79F
LOWELL           N/A     76  50  40 N3        29.78F
COEUR D`ALENE  SUNNY     78  42  27 SW3       29.82F
MULLAN PASS    MOSUNNY   62  39  42 MISG      29.98F
$$




USA.gov is the U.S. government's official web portal to all federal, state and local government web resources and services.